Time,TemperatureF,DewpointF,PressureIn,WindDirection,WindDirectionDegrees,WindSpeedMPH,WindSpeedGustMPH,Humidity,HourlyPrecipIn,Conditions,Clouds,dailyrainin,SoftwareType,DateUTC
2013-01-19 00:30:00,39.2,30.2,29.46,South,190,0.0,14.0,70,0.00,,---,0.00,VWS V13.01,2013-01-19 05:30:00,
2013-01-19 01:00:00,39.0,30.4,29.45,South,179,0.0,8.0,71,0.00,,---,0.00,VWS V13.01,2013-01-19 06:00:00,
2013-01-19 01:30:00,39.4,30.8,29.43,SW,223,0.0,14.0,71,0.00,,---,0.00,VWS V13.01,2013-01-19 06:30:00,
2013-01-19 02:00:00,39.4,31.1,29.43,NE,51,0.0,13.0,72,0.00,,---,0.00,VWS V13.01,2013-01-19 07:00:00,
2013-01-19 02:30:00,39.6,31.3,29.45,SSW,203,0.0,9.0,72,0.00,,---,0.00,VWS V13.01,2013-01-19 07:30:00,
2013-01-19 03:00:00,39.4,31.5,29.43,WSW,253,0.0,10.0,73,0.00,,---,0.00,VWS V13.01,2013-01-19 08:00:00,
2013-01-19 03:30:00,39.1,31.9,29.44,SW,219,6.0,13.0,75,0.00,,---,0.00,VWS V13.01,2013-01-19 08:30:00,
2013-01-19 04:00:00,39.0,32.1,29.43,West,261,0.0,13.0,76,0.00,,---,0.00,VWS V13.01,2013-01-19 09:00:00,
2013-01-19 04:30:00,38.7,32.1,29.44,South,169,0.0,6.0,77,0.00,,---,0.00,VWS V13.01,2013-01-19 09:30:00,
2013-01-19 05:00:00,38.3,32.0,29.43,SSE,151,0.0,5.0,78,0.00,,---,0.00,VWS V13.01,2013-01-19 10:00:00,
2013-01-19 05:30:00,38.4,32.2,29.44,SSW,198,0.0,6.0,78,0.00,,---,0.00,VWS V13.01,2013-01-19 10:30:00,
2013-01-19 06:00:00,38.3,32.4,29.44,SW,222,0.0,8.0,79,0.00,,---,0.00,VWS V13.01,2013-01-19 11:00:00,
2013-01-19 09:30:00,39.2,32.9,29.47,SSE,167,0.0,8.0,78,0.00,,---,0.00,VWS V13.01,2013-01-19 14:30:00,
2013-01-19 10:00:00,40.4,33.5,29.46,WSW,246,1.0,11.0,76,0.00,,---,0.00,VWS V13.01,2013-01-19 15:00:00,
2013-01-19 10:30:00,41.8,33.8,29.45,West,268,4.0,10.0,73,0.00,,---,0.00,VWS V13.01,2013-01-19 15:30:00,
2013-01-19 11:00:00,42.3,33.9,29.44,SW,217,0.0,9.0,72,0.00,,---,0.00,VWS V13.01,2013-01-19 16:00:00,
2013-01-19 11:30:00,43.8,34.3,29.42,SSE,168,0.0,9.0,69,0.00,,---,0.00,VWS V13.01,2013-01-19 16:30:00,
2013-01-19 12:00:00,45.6,34.5,29.40,SSW,193,0.0,9.0,65,0.00,,---,0.00,VWS V13.01,2013-01-19 17:00:00,
2013-01-19 12:30:00,44.5,33.9,29.37,SW,222,0.0,12.0,66,0.00,,---,0.00,VWS V13.01,2013-01-19 17:30:00,
2013-01-19 13:00:00,44.5,33.5,29.36,SW,220,0.0,14.0,65,0.00,,---,0.00,VWS V13.01,2013-01-19 18:00:00,
2013-01-19 13:30:00,44.1,33.5,29.32,SSW,210,0.0,14.0,66,0.00,,---,0.00,VWS V13.01,2013-01-19 18:30:00,
2013-01-19 14:00:00,44.1,33.5,29.32,SSW,210,9.0,12.0,66,0.00,,---,0.00,VWS V13.01,2013-01-19 19:00:00,
2013-01-19 14:30:00,43.7,33.5,29.30,South,185,0.0,10.0,67,0.00,,---,0.00,VWS V13.01,2013-01-19 19:30:00,
2013-01-19 15:00:00,43.5,33.7,29.29,SW,220,0.0,15.0,68,0.00,,---,0.00,VWS V13.01,2013-01-19 20:00:00,
2013-01-19 15:30:00,43.7,33.8,29.29,WSW,244,0.0,9.0,68,0.00,,---,0.00,VWS V13.01,2013-01-19 20:30:00,
2013-01-19 16:00:00,44.0,34.1,29.26,South,172,0.0,12.0,68,0.00,,---,0.00,VWS V13.01,2013-01-19 21:00:00,
2013-01-19 20:30:00,43.0,36.9,29.22,SW,232,0.0,12.0,79,0.00,,---,0.00,VWS V13.01,2013-01-20 01:30:00,
2013-01-19 21:00:00,42.8,37.1,29.18,WSW,246,0.0,9.0,80,0.00,,---,0.00,VWS V13.01,2013-01-20 02:00:00,
2013-01-19 21:30:00,42.8,36.4,29.18,WSW,238,0.0,8.0,78,0.00,,---,0.00,VWS V13.01,2013-01-20 02:30:00,
2013-01-19 22:00:00,43.1,35.7,29.18,SSE,147,6.0,17.0,75,0.00,,---,0.00,VWS V13.01,2013-01-20 03:00:00,
2013-01-19 22:30:00,42.4,34.7,29.16,West,275,8.0,12.0,74,0.00,,---,0.00,VWS V13.01,2013-01-20 03:30:00,
2013-01-19 23:00:00,41.7,32.3,29.17,NW,307,9.0,16.0,69,0.00,,---,0.00,VWS V13.01,2013-01-20 04:00:00,
2013-01-19 23:30:00,40.8,30.0,29.17,West,261,0.0,12.0,65,0.00,,---,0.00,VWS V13.01,2013-01-20 04:30:00,